Voltar ao catálogo

COSMOS 970 DEB

AtivoLEO
NORAD 14906·DEBRIS·🇷🇺 Russia

Lançado Dec 21, 1977 de Baikonur Cosmodrome

Loading…

Próximas Passagens (próximas 24 horas)

TLE

AtualizadoSource: Space-Track

Época: Sep 14, 2026, 05:04 UTC

1 14906U 77121BK  26257.21120463  .00000162  00000-0  24971-3 0  9994
2 14906  65.9528 325.7003 0107055  61.7345 331.7922 13.73294596142598

Acompanhe COSMOS 970 DEB em tempo real com AllMySat

Download on the App Store